Terminal Aerodrome Forecast
Issued by NWS Anchorage, AK

Home | Current Version | Previous Version | Text Only | Print | Product List | Glossary On
Versions: 1 2 3 4 5 6 7 8 9 10 11 12 13 14 15 16 17 18 19 20 21 22 23 24 25 26 27 28 29 30 31 32 33 34 35 36 37 38 39 40 41 42 43 44 45
000
FTAK31 PANC 291141 CCB
TAFANC
TAF COR
PANC 291141Z 2912/3018 16009KT P6SM -SHRA SCT025 OVC050
      TEMPO 2912/2916 5SM -RA BR SCT015 BKN025 OVC050
     FM292100 28006KT P6SM VCSH BKN060
     FM300300 18006KT P6SM VCSH BKN060
     FM300600 17010KT P6SM -SHRA BKN050 OVC080=

USA.gov is the U.S. government's official web portal to all federal, state and local government web resources and services.